Location: Unspecified
(0.0000°N, 0.0000°E)
Time: 12:58:33
(UTC+00:00)

A-11 Canister half - All Passes

Search period start: 30 April 2017 00:00
Search period end: 10 May 2017 00:00
Orbit: 1516 x 1684 km, 47.2° (Epoch: 28 April)

Date Brightness Start Highest point End Pass type
(mag) Time Alt. Az. Time Alt. Az. Time Alt. Az.
30 Apr - 02:13:53 10° SSE 02:17:55 13° SE 02:21:55 10° ESE visible
30 Apr - 04:13:50 10° SW 04:23:07 77° SE 04:32:21 10° NE visible
30 Apr - 06:21:35 10° W 06:27:57 21° NW 06:34:24 10° N daylight
30 Apr - 15:00:12 10° NNW 15:09:03 35° NE 15:17:57 10° ESE daylight
30 Apr - 17:04:11 10° NW 17:13:57 54° SW 17:23:45 10° SSE daylight
01 May - 01:51:55 10° SSE 01:54:56 12° SE 01:57:56 10° ESE visible
01 May - 03:50:58 10° SSW 04:00:14 71° SE 04:09:25 10° NE visible
01 May - 05:58:15 10° W 06:05:01 23° NW 06:11:52 10° N daylight
01 May - 14:37:30 10° N 14:46:06 32° NE 14:54:44 10° ESE daylight
01 May - 16:41:09 10° NW 16:51:01 58° SW 17:00:57 10° SSE daylight
02 May - 01:30:41 10° SE 01:31:56 10° SE 01:33:10 10° SE visible
02 May - 03:28:07 10° SSW 03:37:21 65° SE 03:46:28 10° NE visible
02 May - 05:34:57 10° W 05:42:06 25° NW 05:49:17 10° N visible
02 May - 14:14:50 10° N 14:23:08 29° NE 14:31:29 10° ESE daylight
02 May - 16:18:07 10° NW 16:28:05 63° SW 16:38:06 10° SSE daylight
02 May - 18:31:21 10° WSW 18:33:45 11° SW 18:36:08 10° SSW visible
03 May - 03:05:18 10° SSW 03:14:28 60° SE 03:23:30 10° NE visible
03 May - 05:11:42 10° WSW 05:19:09 28° NW 05:26:40 10° N visible
03 May - 13:52:12 10° N 14:00:10 27° NE 14:08:11 10° ESE daylight
03 May - 15:55:07 10° NW 16:05:08 68° SW 16:15:14 10° SSE daylight
03 May - 18:06:55 10° WSW 18:10:42 12° SW 18:14:30 10° SSW daylight
04 May - 02:42:29 10° SSW 02:51:34 55° SE 03:00:30 10° NE visible
04 May - 04:48:29 10° WSW 04:56:15 30° NW 05:04:02 10° N visible
04 May - 13:29:36 10° N 13:37:11 24° NE 13:44:50 10° E daylight
04 May - 15:32:08 10° NW 15:42:12 74° SW 15:52:22 10° SSE daylight
04 May - 17:42:55 10° WSW 17:47:40 14° SW 17:52:26 10° SSW daylight
05 May - 02:19:42 10° SSW 02:28:41 50° SE 02:37:29 10° ENE visible
05 May - 04:25:19 10° WSW 04:33:20 33° NW 04:41:23 10° NNE visible
05 May - 13:07:03 10° N 13:14:13 22° NE 13:21:26 10° E daylight
05 May - 15:09:11 10° NW 15:19:15 80° SW 15:29:28 10° SE daylight
05 May - 17:19:08 10° W 17:24:38 16° SW 17:30:10 10° SSW daylight
06 May - 01:56:55 10° SSW 02:05:47 46° SE 02:14:27 10° ENE visible
06 May - 04:02:10 10° WSW 04:10:26 36° NW 04:18:41 10° NNE visible
06 May - 12:44:32 10° N 12:51:13 20° NE 12:57:58 10° E daylight
06 May - 14:46:16 10° NW 14:56:20 86° SW 15:06:33 10° SE daylight
06 May - 16:55:30 10° W 17:01:37 18° SW 17:07:48 10° S daylight
07 May - 01:34:09 10° SSW 01:42:53 42° SE 01:51:24 10° ENE visible
07 May - 03:39:02 10° WSW 03:47:32 40° NW 03:55:59 10° NNE visible
07 May - 12:22:05 10° N 12:28:14 18° NE 12:34:26 10° E daylight
07 May - 14:23:20 10° NW 14:33:23 88° NE 14:43:37 10° SE daylight
07 May - 16:31:58 10° W 16:38:37 19° SW 16:45:20 10° S daylight
08 May - 01:11:25 10° SSW 01:19:58 38° SE 01:28:19 10° ENE visible
08 May - 03:15:57 10° WSW 03:24:38 44° NW 03:33:15 10° NNE visible
08 May - 11:59:44 10° NNE 12:05:14 16° NE 12:10:47 10° E daylight
08 May - 14:00:27 10° NW 14:10:27 82° NE 14:20:40 10° SE daylight
08 May - 16:08:30 10° W 16:15:37 21° SW 16:22:48 10° S daylight
09 May - 00:48:41 10° SSW 00:57:04 35° SE 01:05:12 10° ENE visible
09 May - 02:52:53 10° WSW 03:01:44 48° NW 03:10:31 10° NNE visible
09 May - 11:37:29 10° NNE 11:42:14 14° NE 11:47:00 10° ENE daylight
09 May - 13:37:34 10° NW 13:47:32 76° NE 13:57:41 10° SE daylight
09 May - 15:45:06 10° W 15:52:37 24° SW 16:00:14 10° S daylight
